• In Uzbekistan
  • List of Countries
  • For 7 days
  • Water Temperature
  • Satellite Maps
  • Weather Map
  • Weather Widgets
  • user-avatar
    Login

    Hourly Weather Annaba

    Today, 2 December, Friday

    Time Temperature Precipitation Wind Pressure Humidity
    00:00 +11°C° 0 mm 1 mps 766 mmHg 78%
    01:00 +10°C° 0 mm 2 mps 766 mmHg 77%
    02:00 +10°C° 0 mm 2 mps 765 mmHg 77%
    03:00 +10°C° 0 mm 2 mps 765 mmHg 77%
    04:00 +10°C° 0 mm 2 mps 765 mmHg 76%
    05:00 +10°C° 0 mm 2 mps 764 mmHg 76%
    06:00 +9°C° 0 mm 2 mps 764 mmHg 76%
    07:00 +10°C° 0 mm 2 mps 764 mmHg 75%
    08:00 +13°C° 0 mm 2 mps 764 mmHg 68%
    09:00 +15°C° 0 mm 2 mps 764 mmHg 61%
    10:00 +17°C° 0 mm 2 mps 764 mmHg 54%
    11:00 +18°C° 0 mm 2 mps 763 mmHg 51%
    12:00 +20°C° 0 mm 1 mps 763 mmHg 47%
    13:00 +21°C° 0 mm 1 mps 762 mmHg 44%
    14:00 +21°C° 0 mm 1 mps 762 mmHg 46%
    15:00 +20°C° 0 mm 1 mps 762 mmHg 49%
    16:00 +19°C° 0 mm 2 mps 761 mmHg 51%
    17:00 +17°C° 0 mm 2 mps 761 mmHg 60%
    18:00 +14°C° 0 mm 1 mps 761 mmHg 68%
    19:00 +12°C° 0 mm 1 mps 761 mmHg 77%
    20:00 +12°C° 0 mm 1 mps 761 mmHg 78%
    21:00 +12°C° 0 mm 1 mps 761 mmHg 78%
    22:00 +11°C° 0 mm 1 mps 761 mmHg 79%
    23:00 +12°C° 0 mm 1 mps 761 mmHg 78%

    Tomorrow, 3 December, Saturday

    Time Temperature Precipitation Wind Pressure Humidity
    00:00 +12°C° 0 mm 1 mps 761 mmHg 77%
    01:00 +12°C° 0 mm 1 mps 761 mmHg 77%
    02:00 +12°C° 0 mm 1 mps 760 mmHg 75%
    03:00 +12°C° 0 mm 1 mps 760 mmHg 73%
    04:00 +13°C° 0 mm 2 mps 760 mmHg 71%
    05:00 +13°C° 0.1 mm 2 mps 760 mmHg 73%
    06:00 +13°C° 0.1 mm 2 mps 760 mmHg 75%
    07:00 +13°C° 0.1 mm 2 mps 760 mmHg 76%
    08:00 +14°C° 0.1 mm 2 mps 760 mmHg 72%
    09:00 +15°C° 0.1 mm 2 mps 760 mmHg 67%
    10:00 +18°C° 0.1 mm 1 mps 760 mmHg 62%
    11:00 +19°C° 0 mm 1 mps 760 mmHg 58%
    12:00 +20°C° 0 mm 1 mps 760 mmHg 54%
    13:00 +21°C° 0 mm 1 mps 759 mmHg 49%
    14:00 +21°C° 0 mm 1 mps 759 mmHg 52%
    15:00 +19°C° 0 mm 2 mps 759 mmHg 54%
    16:00 +19°C° 0 mm 2 mps 759 mmHg 56%
    17:00 +17°C° 0 mm 2 mps 759 mmHg 65%
    18:00 +15°C° 0 mm 2 mps 759 mmHg 74%
    19:00 +13°C° 0 mm 2 mps 760 mmHg 83%
    20:00 +13°C° 0 mm 2 mps 760 mmHg 83%
    21:00 +12°C° 0 mm 2 mps 760 mmHg 83%
    22:00 +12°C° 0 mm 2 mps 760 mmHg 83%
    23:00 +12°C° 0 mm 2 mps 760 mmHg 83%

    Day after tomorrow, 4 December, Sunday

    Time Temperature Precipitation Wind Pressure Humidity
    00:00 +12°C° 0 mm 2 mps 760 mmHg 83%
    01:00 +12°C° 0 mm 2 mps 760 mmHg 82%
    02:00 +12°C° 0 mm 2 mps 760 mmHg 81%
    03:00 +12°C° 0 mm 2 mps 760 mmHg 81%
    04:00 +12°C° 0 mm 2 mps 760 mmHg 80%
    05:00 +11°C° 0 mm 3 mps 760 mmHg 79%
    06:00 +11°C° 0 mm 3 mps 760 mmHg 78%
    07:00 +11°C° 0 mm 3 mps 760 mmHg 77%
    08:00 +13°C° 0 mm 3 mps 760 mmHg 70%
    09:00 +16°C° 0 mm 3 mps 761 mmHg 63%
    10:00 +17°C° 0 mm 3 mps 761 mmHg 57%
    11:00 +19°C° 0 mm 3 mps 760 mmHg 53%
    12:00 +20°C° 0 mm 3 mps 760 mmHg 49%
    13:00 +21°C° 0 mm 4 mps 759 mmHg 45%
    14:00 +21°C° 0 mm 4 mps 759 mmHg 47%
    15:00 +21°C° 0 mm 4 mps 759 mmHg 49%
    16:00 +21°C° 0 mm 4 mps 758 mmHg 52%
    17:00 +20°C° 0 mm 4 mps 759 mmHg 55%
    18:00 +17°C° 0 mm 5 mps 759 mmHg 59%
    19:00 +16°C° 0 mm 5 mps 759 mmHg 63%
    20:00 +16°C° 0 mm 5 mps 760 mmHg 62%
    21:00 +15°C° 0 mm 5 mps 760 mmHg 61%
    22:00 +15°C° 0 mm 4 mps 760 mmHg 60%
    23:00 +15°C° 0 mm 4 mps 760 mmHg 60%

    5 December, Monday

    Time Temperature Precipitation Wind Pressure Humidity
    00:00 +15°C° 0 mm 4 mps 760 mmHg 60%
    01:00 +15°C° 0 mm 4 mps 760 mmHg 60%
    02:00 +14°C° 0.3 mm 4 mps 760 mmHg 67%
    03:00 +14°C° 0.3 mm 5 mps 760 mmHg 73%
    04:00 +13°C° 0.3 mm 5 mps 760 mmHg 80%
    05:00 +13°C° 0.3 mm 5 mps 760 mmHg 81%
    06:00 +13°C° 0.3 mm 5 mps 761 mmHg 82%
    07:00 +13°C° 0.3 mm 4 mps 761 mmHg 82%
    08:00 +13°C° 0 mm 4 mps 761 mmHg 79%
    09:00 +14°C° 0 mm 4 mps 761 mmHg 76%
    10:00 +15°C° 0 mm 4 mps 761 mmHg 73%
    11:00 +17°C° 0 mm 3 mps 761 mmHg 67%
    12:00 +18°C° 0 mm 3 mps 761 mmHg 62%
    13:00 +20°C° 0 mm 2 mps 761 mmHg 56%
    14:00 +20°C° 0 mm 2 mps 760 mmHg 57%
    15:00 +20°C° 0 mm 2 mps 760 mmHg 58%
    16:00 +21°C° 0 mm 2 mps 760 mmHg 59%
    17:00 +19°C° 0 mm 2 mps 761 mmHg 66%
    18:00 +17°C° 0 mm 2 mps 761 mmHg 73%
    19:00 +15°C° 0 mm 2 mps 761 mmHg 81%
    20:00 +15°C° 0 mm 2 mps 762 mmHg 79%
    21:00 +14°C° 0 mm 2 mps 762 mmHg 78%
    22:00 +14°C° 0 mm 1 mps 762 mmHg 77%
    23:00 +14°C° 0 mm 1 mps 762 mmHg 77%

    6 December, Tuesday

    Time Temperature Precipitation Wind Pressure Humidity
    00:00 +14°C° 0 mm 2 mps 762 mmHg 77%
    01:00 +14°C° 0 mm 2 mps 762 mmHg 77%
    02:00 +14°C° 0 mm 2 mps 762 mmHg 77%
    03:00 +14°C° 0 mm 2 mps 762 mmHg 78%
    04:00 +14°C° 0 mm 2 mps 762 mmHg 78%
    05:00 +14°C° 0 mm 2 mps 762 mmHg 80%
    06:00 +13°C° 0 mm 2 mps 762 mmHg 82%
    07:00 +13°C° 0 mm 2 mps 763 mmHg 83%
    08:00 +15°C° 0 mm 2 mps 763 mmHg 77%
    09:00 +16°C° 0 mm 2 mps 763 mmHg 70%
    10:00 +18°C° 0 mm 2 mps 764 mmHg 64%
    11:00 +18°C° 0 mm 2 mps 763 mmHg 61%
    12:00 +19°C° 0 mm 2 mps 763 mmHg 59%
    13:00 +20°C° 0 mm 2 mps 763 mmHg 57%
    14:00 +20°C° 0.1 mm 2 mps 763 mmHg 60%
    15:00 +19°C° 0.1 mm 2 mps 763 mmHg 62%
    16:00 +19°C° 0.1 mm 3 mps 763 mmHg 64%
    17:00 +18°C° 0.2 mm 2 mps 763 mmHg 72%
    18:00 +16°C° 0.2 mm 1 mps 763 mmHg 80%
    19:00 +14°C° 0.2 mm 1 mps 763 mmHg 88%
    20:00 +14°C° 0.2 mm 1 mps 764 mmHg 89%
    21:00 +14°C° 0.2 mm 1 mps 764 mmHg 89%
    22:00 +14°C° 0.2 mm 1 mps 764 mmHg 89%
    23:00 +13°C° 0.1 mm 2 mps 764 mmHg 89%

    7 December, Wednesday

    Time Temperature Precipitation Wind Pressure Humidity
    00:00 +13°C° 0.1 mm 2 mps 764 mmHg 89%
    01:00 +13°C° 0.1 mm 2 mps 764 mmHg 89%
    02:00 +13°C° 0.2 mm 2 mps 763 mmHg 89%
    03:00 +13°C° 0.2 mm 2 mps 763 mmHg 89%
    04:00 +13°C° 0.2 mm 2 mps 763 mmHg 89%
    05:00 +12°C° 0.2 mm 2 mps 763 mmHg 89%
    06:00 +12°C° 0.2 mm 2 mps 763 mmHg 89%
    07:00 +12°C° 0.2 mm 2 mps 763 mmHg 88%
    08:00 +14°C° 0.1 mm 2 mps 764 mmHg 82%
    09:00 +16°C° 0.1 mm 2 mps 764 mmHg 76%
    10:00 +17°C° 0.1 mm 2 mps 764 mmHg 69%
    11:00 +18°C° 0.1 mm 2 mps 764 mmHg 68%
    12:00 +19°C° 0.1 mm 2 mps 763 mmHg 66%
    13:00 +19°C° 0.1 mm 2 mps 763 mmHg 64%
    14:00 +19°C° 0.1 mm 2 mps 763 mmHg 66%
    15:00 +19°C° 0.1 mm 2 mps 763 mmHg 68%
    16:00 +19°C° 0.1 mm 2 mps 763 mmHg 70%
    17:00 +17°C° 0.6 mm 2 mps 763 mmHg 77%
    18:00 +16°C° 0.6 mm 2 mps 763 mmHg 83%
    19:00 +14°C° 0.6 mm 2 mps 763 mmHg 89%
    20:00 +14°C° 0.5 mm 2 mps 763 mmHg 90%
    21:00 +13°C° 0.5 mm 3 mps 763 mmHg 90%
    22:00 +13°C° 0.5 mm 3 mps 764 mmHg 90%
    23:00 +13°C° 0.3 mm 3 mps 764 mmHg 90%
    Show more